TimeCDT,TemperatureF,Dew PointF,Humidity,Sea Level PressureIn,VisibilityMPH,Wind Direction,Wind SpeedMPH,Gust SpeedMPH,PrecipitationIn,Events,Conditions,WindDirDegrees,DateUTC
12:53 AM,81.0,75.9,85,29.93,10.0,Calm,Calm,-,N/A,,Clear,0,2013-06-28 05:53:00
1:53 AM,81.0,77.0,88,29.93,10.0,Calm,Calm,-,N/A,,Clear,0,2013-06-28 06:53:00
2:53 AM,81.0,78.1,91,29.91,9.0,West,3.5,-,N/A,,Clear,270,2013-06-28 07:53:00
3:53 AM,82.0,79.0,90,29.89,8.0,SW,3.5,-,N/A,,Clear,220,2013-06-28 08:53:00
4:53 AM,82.0,79.0,90,29.90,9.0,WNW,4.6,-,N/A,,Clear,290,2013-06-28 09:53:00
5:37 AM,80.6,78.8,94,29.90,8.0,WNW,4.6,-,N/A,,Partly Cloudy,290,2013-06-28 10:37:00
5:53 AM,81.0,78.1,91,29.90,6.0,WNW,5.8,-,N/A,,Clear,290,2013-06-28 10:53:00
6:53 AM,81.0,78.1,91,29.91,7.0,WNW,5.8,-,N/A,,Clear,300,2013-06-28 11:53:00
7:53 AM,82.0,75.9,82,29.94,10.0,West,5.8,-,N/A,,Clear,270,2013-06-28 12:53:00
8:53 AM,86.0,75.9,72,29.93,10.0,West,9.2,-,N/A,,Clear,280,2013-06-28 13:53:00
9:53 AM,89.1,75.9,65,29.91,10.0,NW,11.5,-,N/A,,Clear,310,2013-06-28 14:53:00
10:53 AM,91.0,75.0,59,29.91,10.0,NW,10.4,-,N/A,,Clear,310,2013-06-28 15:53:00
11:53 AM,93.0,75.0,56,29.90,10.0,WNW,10.4,16.1,N/A,,Partly Cloudy,300,2013-06-28 16:53:00
12:53 PM,93.0,75.0,56,29.88,10.0,West,8.1,-,N/A,,Partly Cloudy,280,2013-06-28 17:53:00
1:53 PM,93.9,75.0,54,29.86,10.0,West,8.1,-,N/A,,Partly Cloudy,270,2013-06-28 18:53:00
2:53 PM,93.0,73.0,52,29.83,10.0,West,5.8,-,N/A,,Mostly Cloudy,270,2013-06-28 19:53:00
3:53 PM,95.0,73.0,49,29.80,10.0,NW,8.1,-,N/A,,Partly Cloudy,310,2013-06-28 20:53:00
4:53 PM,93.0,73.9,54,29.79,10.0,WNW,8.1,-,N/A,,Partly Cloudy,290,2013-06-28 21:53:00
5:53 PM,93.0,73.9,54,29.79,10.0,WNW,5.8,-,N/A,,Clear,290,2013-06-28 22:53:00
6:53 PM,91.0,75.9,61,29.79,10.0,West,3.5,-,N/A,,Partly Cloudy,260,2013-06-28 23:53:00
7:53 PM,89.1,73.9,61,29.77,10.0,Calm,Calm,-,N/A,,Clear,0,2013-06-29 00:53:00
8:53 PM,88.0,73.9,63,29.78,10.0,Calm,Calm,-,N/A,,Clear,0,2013-06-29 01:53:00
9:53 PM,84.9,75.0,72,29.81,10.0,Calm,Calm,-,N/A,,Clear,0,2013-06-29 02:53:00
10:53 PM,84.0,75.0,74,29.81,10.0,West,3.5,-,N/A,,Clear,280,2013-06-29 03:53:00
11:53 PM,82.9,75.0,77,29.80,10.0,Calm,Calm,-,N/A,,Clear,0,2013-06-29 04:53:00